Year,Month,Day,Hour,Minute,Value (Times are PST for temperature in C)
2019,07,01,00,00,15.50
2019,07,01,00,01,15.40
2019,07,01,00,02,15.40
2019,07,01,00,03,15.40
2019,07,01,00,04,15.40
2019,07,01,00,05,15.30
2019,07,01,00,06,15.30
2019,07,01,00,07,15.30
2019,07,01,00,08,15.30
2019,07,01,00,09,15.20
2019,07,01,00,10,15.20
2019,07,01,00,11,15.20
2019,07,01,00,12,15.20
2019,07,01,00,13,15.20
2019,07,01,00,14,15.20
2019,07,01,00,15,15.20
2019,07,01,00,16,15.20
2019,07,01,00,17,15.20
2019,07,01,00,18,15.20
2019,07,01,00,19,15.20
2019,07,01,00,20,15.20
2019,07,01,00,21,15.20
2019,07,01,00,22,15.20
2019,07,01,00,23,15.20
2019,07,01,00,24,15.20
2019,07,01,00,25,15.20
2019,07,01,00,26,15.20
2019,07,01,00,27,15.20
2019,07,01,00,28,15.20
2019,07,01,00,29,15.20
2019,07,01,00,30,15.20
2019,07,01,00,31,15.20
2019,07,01,00,32,15.10
2019,07,01,00,33,15.10
2019,07,01,00,34,15.10
2019,07,01,00,35,15.10
2019,07,01,00,36,15.10
2019,07,01,00,37,15.10
2019,07,01,00,38,15.10
2019,07,01,00,39,15.10
2019,07,01,00,40,15.10
2019,07,01,00,41,15.10
2019,07,01,00,42,15.00
2019,07,01,00,43,15.00
2019,07,01,00,44,15.00
2019,07,01,00,45,15.00
2019,07,01,00,46,15.00
2019,07,01,00,47,15.00
2019,07,01,00,48,14.90
2019,07,01,00,49,14.90
2019,07,01,00,50,14.90
2019,07,01,00,51,14.90
2019,07,01,00,52,14.90
2019,07,01,00,53,14.90
2019,07,01,00,54,14.80
2019,07,01,00,55,14.80
2019,07,01,00,56,14.80
2019,07,01,00,57,14.80
2019,07,01,00,58,14.70
2019,07,01,00,59,14.70
2019,07,01,01,00,14.70
2019,07,01,01,01,14.70
2019,07,01,01,02,14.70
2019,07,01,01,03,14.60
2019,07,01,01,04,14.60
2019,07,01,01,05,14.60
2019,07,01,01,06,14.60
2019,07,01,01,07,14.60
2019,07,01,01,08,14.50
2019,07,01,01,09,14.50
2019,07,01,01,10,14.50
2019,07,01,01,11,14.50
2019,07,01,01,12,14.50
2019,07,01,01,13,14.50
2019,07,01,01,14,14.50
2019,07,01,01,15,14.50
2019,07,01,01,16,14.50
2019,07,01,01,17,14.50
2019,07,01,01,18,14.50
2019,07,01,01,19,14.50
2019,07,01,01,20,14.50
2019,07,01,01,21,14.50
2019,07,01,01,22,14.60
2019,07,01,01,23,14.60
2019,07,01,01,24,14.60
2019,07,01,01,25,14.60
2019,07,01,01,26,14.60
2019,07,01,01,27,14.60
2019,07,01,01,28,14.60
2019,07,01,01,29,14.60
2019,07,01,01,30,14.50
2019,07,01,01,31,14.50
2019,07,01,01,32,14.50
2019,07,01,01,33,14.40
2019,07,01,01,34,14.40
2019,07,01,01,35,14.30
2019,07,01,01,36,14.30
2019,07,01,01,37,14.30
2019,07,01,01,38,14.30
2019,07,01,01,39,14.20
2019,07,01,01,40,14.20
2019,07,01,01,41,14.20
2019,07,01,01,42,14.20
2019,07,01,01,43,14.20
2019,07,01,01,44,14.20
2019,07,01,01,45,14.10
2019,07,01,01,46,14.10
2019,07,01,01,47,14.10
2019,07,01,01,48,14.10
2019,07,01,01,49,14.00
2019,07,01,01,50,14.00
2019,07,01,01,51,14.00
2019,07,01,01,52,14.00
2019,07,01,01,53,13.90
2019,07,01,01,54,13.90
2019,07,01,01,55,13.90
2019,07,01,01,56,13.90
2019,07,01,01,57,13.90
2019,07,01,01,58,13.90
2019,07,01,01,59,13.90
2019,07,01,02,00,13.90
2019,07,01,02,01,13.90
2019,07,01,02,02,13.90
2019,07,01,02,03,13.90
2019,07,01,02,04,13.90
2019,07,01,02,05,13.90
2019,07,01,02,06,13.90
2019,07,01,02,07,13.80
2019,07,01,02,08,13.80
2019,07,01,02,09,13.80
2019,07,01,02,10,13.80
2019,07,01,02,11,13.70
2019,07,01,02,12,13.70
2019,07,01,02,13,13.70
2019,07,01,02,14,13.60
2019,07,01,02,15,13.60
2019,07,01,02,16,13.60
2019,07,01,02,17,13.60
2019,07,01,02,18,13.60
2019,07,01,02,19,13.50
2019,07,01,02,20,13.50
2019,07,01,02,21,13.50
2019,07,01,02,22,13.50
2019,07,01,02,23,13.40
2019,07,01,02,24,13.40
2019,07,01,02,25,13.40
2019,07,01,02,26,13.40
2019,07,01,02,27,13.40
2019,07,01,02,28,13.40
2019,07,01,02,29,13.30
2019,07,01,02,30,13.30
2019,07,01,02,31,13.30
2019,07,01,02,32,13.30
2019,07,01,02,33,13.30
2019,07,01,02,34,13.30
2019,07,01,02,35,13.40
2019,07,01,02,36,13.40
2019,07,01,02,37,13.40
2019,07,01,02,38,13.40
2019,07,01,02,39,13.40
2019,07,01,02,40,13.40
2019,07,01,02,41,13.40
2019,07,01,02,42,13.40
2019,07,01,02,43,13.40
2019,07,01,02,44,13.40
2019,07,01,02,45,13.30
2019,07,01,02,46,13.30
2019,07,01,02,47,13.30
2019,07,01,02,48,13.30
2019,07,01,02,49,13.30
2019,07,01,02,50,13.20
2019,07,01,02,51,13.20
2019,07,01,02,52,13.20
2019,07,01,02,53,13.20
2019,07,01,02,54,13.10
2019,07,01,02,55,13.10
2019,07,01,02,56,13.10
2019,07,01,02,57,13.10
2019,07,01,02,58,13.10
2019,07,01,02,59,13.10
2019,07,01,03,00,13.10
2019,07,01,03,01,13.10
2019,07,01,03,02,13.10
2019,07,01,03,03,13.10
2019,07,01,03,04,13.10
2019,07,01,03,05,13.10
2019,07,01,03,06,13.10
2019,07,01,03,07,13.10
2019,07,01,03,08,13.10
2019,07,01,03,09,13.10
2019,07,01,03,10,13.10
2019,07,01,03,11,13.10
2019,07,01,03,12,13.10
2019,07,01,03,13,13.10
2019,07,01,03,14,13.10
2019,07,01,03,15,13.10
2019,07,01,03,16,13.10
2019,07,01,03,17,13.10
2019,07,01,03,18,13.10
2019,07,01,03,19,13.10
2019,07,01,03,20,13.10
2019,07,01,03,21,13.10
2019,07,01,03,22,13.10
2019,07,01,03,23,13.10
2019,07,01,03,24,13.10
2019,07,01,03,25,13.10
2019,07,01,03,26,13.10
2019,07,01,03,27,13.10
2019,07,01,03,28,13.00
2019,07,01,03,29,13.00
2019,07,01,03,30,13.00
2019,07,01,03,31,13.00
2019,07,01,03,32,13.00
2019,07,01,03,33,13.00
2019,07,01,03,34,13.00
2019,07,01,03,35,13.00
2019,07,01,03,36,13.00
2019,07,01,03,37,13.00
2019,07,01,03,38,13.00
2019,07,01,03,39,13.00
2019,07,01,03,40,13.00
2019,07,01,03,41,13.00
2019,07,01,03,42,13.00
2019,07,01,03,43,13.00
2019,07,01,03,44,12.90
2019,07,01,03,45,12.90
2019,07,01,03,46,12.90
2019,07,01,03,47,12.90
2019,07,01,03,48,12.90
2019,07,01,03,49,12.80
2019,07,01,03,50,12.80
2019,07,01,03,51,12.80
2019,07,01,03,52,12.80
2019,07,01,03,53,12.80
2019,07,01,03,54,12.70
2019,07,01,03,55,12.70
2019,07,01,03,56,12.70
2019,07,01,03,57,12.70
2019,07,01,03,58,12.70
2019,07,01,03,59,12.70
2019,07,01,04,00,12.70
2019,07,01,04,01,12.70
2019,07,01,04,02,12.70
2019,07,01,04,03,12.70
2019,07,01,04,04,12.70
2019,07,01,04,05,12.70
2019,07,01,04,06,12.70
2019,07,01,04,07,12.70
2019,07,01,04,08,12.70
2019,07,01,04,09,12.70
2019,07,01,04,10,12.70
2019,07,01,04,11,12.70
2019,07,01,04,12,12.70
2019,07,01,04,13,12.70
2019,07,01,04,14,12.70
2019,07,01,04,15,12.70
2019,07,01,04,16,12.70
2019,07,01,04,17,12.70
2019,07,01,04,18,12.70
2019,07,01,04,19,12.70
2019,07,01,04,20,12.70
2019,07,01,04,21,12.70
2019,07,01,04,22,12.80
2019,07,01,04,23,12.70
2019,07,01,04,24,12.70
2019,07,01,04,25,12.70
2019,07,01,04,26,12.70
2019,07,01,04,27,12.70
2019,07,01,04,28,12.70
2019,07,01,04,29,12.70
2019,07,01,04,30,12.70
2019,07,01,04,31,12.80
2019,07,01,04,32,12.80
2019,07,01,04,33,12.80
2019,07,01,04,34,12.70
2019,07,01,04,35,12.70
2019,07,01,04,36,12.70
2019,07,01,04,37,12.70
2019,07,01,04,38,12.70
2019,07,01,04,39,12.70
2019,07,01,04,40,12.70
2019,07,01,04,41,12.60
2019,07,01,04,42,12.60
2019,07,01,04,43,12.60
2019,07,01,04,44,12.50
2019,07,01,04,45,12.50
2019,07,01,04,46,12.50
2019,07,01,04,47,12.40
2019,07,01,04,48,12.40
2019,07,01,04,49,12.40
2019,07,01,04,50,12.40
2019,07,01,04,51,12.40
2019,07,01,04,52,12.40
2019,07,01,04,53,12.40
2019,07,01,04,54,12.40
2019,07,01,04,55,12.40
2019,07,01,04,56,12.40
2019,07,01,04,57,12.30
2019,07,01,04,58,12.30
2019,07,01,04,59,12.30
2019,07,01,05,00,12.30
2019,07,01,05,01,12.30
2019,07,01,05,02,12.30
2019,07,01,05,03,12.30
2019,07,01,05,04,12.30
2019,07,01,05,05,12.30
2019,07,01,05,06,12.30
2019,07,01,05,07,12.30
2019,07,01,05,08,12.30
2019,07,01,05,09,12.30
2019,07,01,05,10,12.30
2019,07,01,05,11,12.20
2019,07,01,05,12,12.20
2019,07,01,05,13,12.20
2019,07,01,05,14,12.20
2019,07,01,05,15,12.10
2019,07,01,05,16,12.10
2019,07,01,05,17,12.00
2019,07,01,05,18,12.00
2019,07,01,05,19,11.90
2019,07,01,05,20,11.90
2019,07,01,05,21,11.80
2019,07,01,05,22,11.80
2019,07,01,05,23,11.80
2019,07,01,05,24,11.80
2019,07,01,05,25,11.80
2019,07,01,05,26,11.70
2019,07,01,05,27,11.70
2019,07,01,05,28,11.70
2019,07,01,05,29,11.70
2019,07,01,05,30,11.70
2019,07,01,05,31,11.70
2019,07,01,05,32,11.70
2019,07,01,05,33,11.70
2019,07,01,05,34,11.70
2019,07,01,05,35,11.70
2019,07,01,05,36,11.70
2019,07,01,05,37,11.80
2019,07,01,05,38,11.80
2019,07,01,05,39,11.80
2019,07,01,05,40,11.80
2019,07,01,05,41,11.80
2019,07,01,05,42,11.80
2019,07,01,05,43,11.80
2019,07,01,05,44,11.90
2019,07,01,05,45,11.90
2019,07,01,05,46,11.90
2019,07,01,05,47,11.90
2019,07,01,05,48,11.90
2019,07,01,05,49,11.90
2019,07,01,05,50,11.90
2019,07,01,05,51,12.00
2019,07,01,05,52,12.00
2019,07,01,05,53,12.00
2019,07,01,05,54,12.00
2019,07,01,05,55,12.00
2019,07,01,05,56,12.00
2019,07,01,05,57,12.00
2019,07,01,05,58,12.00
2019,07,01,05,59,12.10
2019,07,01,06,00,12.10
2019,07,01,06,01,12.10
2019,07,01,06,02,12.10
2019,07,01,06,03,12.10
2019,07,01,06,04,12.10
2019,07,01,06,05,12.10
2019,07,01,06,06,12.10
2019,07,01,06,07,12.20
2019,07,01,06,08,12.20
2019,07,01,06,09,12.20
2019,07,01,06,10,12.20
2019,07,01,06,11,12.30
2019,07,01,06,12,12.30
2019,07,01,06,13,12.40
2019,07,01,06,14,12.40
2019,07,01,06,15,12.50
2019,07,01,06,16,12.50
2019,07,01,06,17,12.50
2019,07,01,06,18,12.60
2019,07,01,06,19,12.60
2019,07,01,06,20,12.60
2019,07,01,06,21,12.60
2019,07,01,06,22,12.60
2019,07,01,06,23,12.70
2019,07,01,06,24,12.70
2019,07,01,06,25,12.70
2019,07,01,06,26,12.80
2019,07,01,06,27,12.80
2019,07,01,06,28,12.90
2019,07,01,06,29,12.90
2019,07,01,06,30,13.00
2019,07,01,06,31,13.00
2019,07,01,06,32,13.10
2019,07,01,06,33,13.10
2019,07,01,06,34,13.20
2019,07,01,06,35,13.20
2019,07,01,06,36,13.30
2019,07,01,06,37,13.30
2019,07,01,06,38,13.40
2019,07,01,06,39,13.40
2019,07,01,06,40,13.50
2019,07,01,06,41,13.50
2019,07,01,06,42,13.60
2019,07,01,06,43,13.60
2019,07,01,06,44,13.70
2019,07,01,06,45,13.80
2019,07,01,06,46,13.80
2019,07,01,06,47,13.90
2019,07,01,06,48,14.00
2019,07,01,06,49,14.00
2019,07,01,06,50,14.10
2019,07,01,06,51,14.10
2019,07,01,06,52,14.20
2019,07,01,06,53,14.30
2019,07,01,06,54,14.30
2019,07,01,06,55,14.40
2019,07,01,06,56,14.50
2019,07,01,06,57,14.50
2019,07,01,06,58,14.60
2019,07,01,06,59,14.60
2019,07,01,07,00,14.70
2019,07,01,07,01,14.80
2019,07,01,07,02,14.90
2019,07,01,07,03,15.00
2019,07,01,07,04,15.10
2019,07,01,07,05,15.10
2019,07,01,07,06,15.20
2019,07,01,07,07,15.20
2019,07,01,07,08,15.30
2019,07,01,07,09,15.40
2019,07,01,07,10,15.40
2019,07,01,07,11,15.50
2019,07,01,07,12,15.60
2019,07,01,07,13,15.60
2019,07,01,07,14,15.60
2019,07,01,07,15,15.70
2019,07,01,07,16,15.70
2019,07,01,07,17,15.80
2019,07,01,07,18,15.80
2019,07,01,07,19,15.90
2019,07,01,07,20,15.90
2019,07,01,07,21,15.90
2019,07,01,07,22,16.00
2019,07,01,07,23,16.00
2019,07,01,07,24,16.10
2019,07,01,07,25,16.10
2019,07,01,07,26,16.20
2019,07,01,07,27,16.20
2019,07,01,07,28,16.30
2019,07,01,07,29,16.30
2019,07,01,07,30,16.40
2019,07,01,07,31,16.50
2019,07,01,07,32,16.50
2019,07,01,07,33,16.60
2019,07,01,07,34,16.70
2019,07,01,07,35,16.80
2019,07,01,07,36,16.90
2019,07,01,07,37,17.00
2019,07,01,07,38,17.00
2019,07,01,07,39,17.10
2019,07,01,07,40,17.10
2019,07,01,07,41,17.10
2019,07,01,07,42,17.20
2019,07,01,07,43,17.20
2019,07,01,07,44,17.30
2019,07,01,07,45,17.30
2019,07,01,07,46,17.40
2019,07,01,07,47,17.40
2019,07,01,07,48,17.50
2019,07,01,07,49,17.60
2019,07,01,07,50,17.60
2019,07,01,07,51,17.70
2019,07,01,07,52,17.70
2019,07,01,07,53,17.80
2019,07,01,07,54,17.80
2019,07,01,07,55,17.90
2019,07,01,07,56,17.90
2019,07,01,07,57,18.00
2019,07,01,07,58,18.00
2019,07,01,07,59,18.00
2019,07,01,08,00,18.00
2019,07,01,08,01,18.00
2019,07,01,08,02,18.00
2019,07,01,08,03,18.00
2019,07,01,08,04,18.10
2019,07,01,08,05,18.10
2019,07,01,08,06,18.10
2019,07,01,08,07,18.20
2019,07,01,08,08,18.20
2019,07,01,08,09,18.20
2019,07,01,08,10,18.20
2019,07,01,08,11,18.30
2019,07,01,08,12,18.30
2019,07,01,08,13,18.30
2019,07,01,08,14,18.30
2019,07,01,08,15,18.30
2019,07,01,08,16,18.30
2019,07,01,08,17,18.30
2019,07,01,08,18,18.40
2019,07,01,08,19,18.40
2019,07,01,08,20,18.40
2019,07,01,08,21,18.50
2019,07,01,08,22,18.60
2019,07,01,08,23,18.60
2019,07,01,08,24,18.70
2019,07,01,08,25,18.70
2019,07,01,08,26,18.80
2019,07,01,08,27,18.90
2019,07,01,08,28,19.00
2019,07,01,08,29,19.10
2019,07,01,08,30,19.20
2019,07,01,08,31,19.30
2019,07,01,08,32,19.30
2019,07,01,08,33,19.40
2019,07,01,08,34,19.40
2019,07,01,08,35,19.50
2019,07,01,08,36,19.60
2019,07,01,08,37,19.60
2019,07,01,08,38,19.60
2019,07,01,08,39,19.70
2019,07,01,08,40,19.70
2019,07,01,08,41,19.80
2019,07,01,08,42,19.90
2019,07,01,08,43,19.90
2019,07,01,08,44,20.00
2019,07,01,08,45,20.10
2019,07,01,08,46,20.10
2019,07,01,08,47,20.10
2019,07,01,08,48,20.10
2019,07,01,08,49,20.10
2019,07,01,08,50,20.10
2019,07,01,08,51,20.10
2019,07,01,08,52,20.10
2019,07,01,08,53,20.10
2019,07,01,08,54,20.10
2019,07,01,08,55,20.10
2019,07,01,08,56,20.20
2019,07,01,08,57,20.20
2019,07,01,08,58,20.20
2019,07,01,08,59,20.10
2019,07,01,09,00,20.10
2019,07,01,09,01,20.00
2019,07,01,09,02,20.00
2019,07,01,09,03,20.00
2019,07,01,09,04,20.00
2019,07,01,09,05,19.90
2019,07,01,09,06,19.80
2019,07,01,09,07,19.70
2019,07,01,09,08,19.60
2019,07,01,09,09,19.50
2019,07,01,09,10,19.50
2019,07,01,09,11,19.40
2019,07,01,09,12,19.30
2019,07,01,09,13,19.30
2019,07,01,09,14,19.30
2019,07,01,09,15,19.30
2019,07,01,09,16,19.30
2019,07,01,09,17,19.30
2019,07,01,09,18,19.30
2019,07,01,09,19,19.20
2019,07,01,09,20,19.20
2019,07,01,09,21,19.10
2019,07,01,09,22,19.10
2019,07,01,09,23,19.10
2019,07,01,09,24,19.10
2019,07,01,09,25,19.10
2019,07,01,09,26,19.00
2019,07,01,09,27,19.10
2019,07,01,09,28,19.10
2019,07,01,09,29,19.10
2019,07,01,09,30,19.10
2019,07,01,09,31,19.00
2019,07,01,09,32,19.00
2019,07,01,09,33,18.90
2019,07,01,09,34,19.00
2019,07,01,09,35,19.00
2019,07,01,09,36,19.00
2019,07,01,09,37,18.90
2019,07,01,09,38,18.90
2019,07,01,09,39,18.90
2019,07,01,09,40,19.00
2019,07,01,09,41,19.00
2019,07,01,09,42,19.00
2019,07,01,09,43,19.00
2019,07,01,09,44,18.90
2019,07,01,09,45,18.90
2019,07,01,09,46,18.90
2019,07,01,09,47,18.90
2019,07,01,09,48,18.90
2019,07,01,09,49,18.90
2019,07,01,09,50,19.00
2019,07,01,09,51,19.00
2019,07,01,09,52,19.00
2019,07,01,09,53,19.00
2019,07,01,09,54,19.10
2019,07,01,09,55,19.10
2019,07,01,09,56,19.00
2019,07,01,09,57,19.10
2019,07,01,09,58,19.10
2019,07,01,09,59,19.20
2019,07,01,10,00,19.20
2019,07,01,10,01,19.20
2019,07,01,10,02,19.30
2019,07,01,10,03,19.30
2019,07,01,10,04,19.30
2019,07,01,10,05,19.30
2019,07,01,10,06,19.20
2019,07,01,10,07,19.20
2019,07,01,10,08,19.10
2019,07,01,10,09,19.10
2019,07,01,10,10,19.10
2019,07,01,10,11,19.10
2019,07,01,10,12,19.10
2019,07,01,10,13,19.10
2019,07,01,10,14,19.10
2019,07,01,10,15,19.10
2019,07,01,10,16,19.20
2019,07,01,10,17,19.30
2019,07,01,10,18,19.40
2019,07,01,10,19,19.50
2019,07,01,10,20,19.60
2019,07,01,10,21,19.60
2019,07,01,10,22,19.60
2019,07,01,10,23,19.50
2019,07,01,10,24,19.50
2019,07,01,10,25,19.50
2019,07,01,10,26,19.50
2019,07,01,10,27,19.50
2019,07,01,10,28,19.60
2019,07,01,10,29,19.60
2019,07,01,10,30,19.70
2019,07,01,10,31,19.80
2019,07,01,10,32,19.80
2019,07,01,10,33,19.90
2019,07,01,10,34,20.00
2019,07,01,10,35,20.00
2019,07,01,10,36,20.00
2019,07,01,10,37,20.00
2019,07,01,10,38,20.00
2019,07,01,10,39,20.10
2019,07,01,10,40,20.20
2019,07,01,10,41,20.30
2019,07,01,10,42,20.30
2019,07,01,10,43,20.40
2019,07,01,10,44,20.40
2019,07,01,10,45,20.50
2019,07,01,10,46,20.50
2019,07,01,10,47,20.50
2019,07,01,10,48,20.50
2019,07,01,10,49,20.60
2019,07,01,10,50,20.60
2019,07,01,10,51,20.60
2019,07,01,10,52,20.70
2019,07,01,10,53,20.70
2019,07,01,10,54,20.80
2019,07,01,10,55,20.80
2019,07,01,10,56,20.90
2019,07,01,10,57,20.90
2019,07,01,10,58,21.00
2019,07,01,10,59,21.10
2019,07,01,11,00,21.20
2019,07,01,11,01,21.30
2019,07,01,11,02,21.30
2019,07,01,11,03,21.30
2019,07,01,11,04,21.30
2019,07,01,11,05,21.30
2019,07,01,11,06,21.40
2019,07,01,11,07,21.40
2019,07,01,11,08,21.50
2019,07,01,11,09,21.50
2019,07,01,11,10,21.60
2019,07,01,11,11,21.70
2019,07,01,11,12,21.70
2019,07,01,11,13,21.70
2019,07,01,11,14,21.70
2019,07,01,11,15,21.60
2019,07,01,11,16,21.60
2019,07,01,11,17,21.60
2019,07,01,11,18,21.60
2019,07,01,11,19,21.70
2019,07,01,11,20,21.70
2019,07,01,11,21,21.70
2019,07,01,11,22,21.70
2019,07,01,11,23,21.80
2019,07,01,11,24,21.80
2019,07,01,11,25,21.80
2019,07,01,11,26,21.80
2019,07,01,11,27,21.80
2019,07,01,11,28,21.80
2019,07,01,11,29,21.80
2019,07,01,11,30,21.80
2019,07,01,11,31,21.90
2019,07,01,11,32,22.00
2019,07,01,11,33,22.00
2019,07,01,11,34,22.10
2019,07,01,11,35,22.20
2019,07,01,11,36,22.20
2019,07,01,11,37,22.20
2019,07,01,11,38,22.20
2019,07,01,11,39,22.20
2019,07,01,11,40,22.20
2019,07,01,11,41,22.10
2019,07,01,11,42,22.20
2019,07,01,11,43,22.20
2019,07,01,11,44,22.30
2019,07,01,11,45,22.40
2019,07,01,11,46,22.50
2019,07,01,11,47,22.60
2019,07,01,11,48,22.60
2019,07,01,11,49,22.50
2019,07,01,11,50,22.40
2019,07,01,11,51,22.30
2019,07,01,11,52,22.10
2019,07,01,11,53,22.00
2019,07,01,11,54,21.90
2019,07,01,11,55,21.90
2019,07,01,11,56,21.90
2019,07,01,11,57,22.00
2019,07,01,11,58,22.00
2019,07,01,11,59,22.00
2019,07,01,12,00,22.00
2019,07,01,12,01,22.00
2019,07,01,12,02,22.00
2019,07,01,12,03,21.90
2019,07,01,12,04,21.90
2019,07,01,12,05,21.80
2019,07,01,12,06,21.70
2019,07,01,12,07,21.70
2019,07,01,12,08,21.70
2019,07,01,12,09,21.70
2019,07,01,12,10,21.70
2019,07,01,12,11,21.70
2019,07,01,12,12,21.70
2019,07,01,12,13,21.70
2019,07,01,12,14,21.70
2019,07,01,12,15,21.70
2019,07,01,12,16,21.80
2019,07,01,12,17,21.80
2019,07,01,12,18,21.80
2019,07,01,12,19,21.80
2019,07,01,12,20,21.90
2019,07,01,12,21,21.90
2019,07,01,12,22,21.90
2019,07,01,12,23,21.90
2019,07,01,12,24,22.00
2019,07,01,12,25,22.00
2019,07,01,12,26,22.10
2019,07,01,12,27,22.20
2019,07,01,12,28,22.30
2019,07,01,12,29,22.40
2019,07,01,12,30,22.50
2019,07,01,12,31,22.60
2019,07,01,12,32,22.70
2019,07,01,12,33,22.80
2019,07,01,12,34,22.80
2019,07,01,12,35,22.70
2019,07,01,12,36,22.60
2019,07,01,12,37,22.60
2019,07,01,12,38,22.60
2019,07,01,12,39,22.60
2019,07,01,12,40,22.50
2019,07,01,12,41,22.50
2019,07,01,12,42,22.40
2019,07,01,12,43,22.30
2019,07,01,12,44,22.30
2019,07,01,12,45,22.30
2019,07,01,12,46,22.30
2019,07,01,12,47,22.30
2019,07,01,12,48,22.30
2019,07,01,12,49,22.30
2019,07,01,12,50,22.40
2019,07,01,12,51,22.40
2019,07,01,12,52,22.40
2019,07,01,12,53,22.30
2019,07,01,12,54,22.30
2019,07,01,12,55,22.30
2019,07,01,12,56,22.30
2019,07,01,12,57,22.40
2019,07,01,12,58,22.40
2019,07,01,12,59,22.40
2019,07,01,13,00,22.50
2019,07,01,13,01,22.50
2019,07,01,13,02,22.60
2019,07,01,13,03,22.60
2019,07,01,13,04,22.50
2019,07,01,13,05,22.40
2019,07,01,13,06,22.40
2019,07,01,13,07,22.40
2019,07,01,13,08,22.40
2019,07,01,13,09,22.50
2019,07,01,13,10,22.70
2019,07,01,13,11,22.80
2019,07,01,13,12,22.80
2019,07,01,13,13,22.80
2019,07,01,13,14,22.80
2019,07,01,13,15,22.80
2019,07,01,13,16,22.80
2019,07,01,13,17,22.80
2019,07,01,13,18,22.80
2019,07,01,13,19,22.80
2019,07,01,13,20,22.90
2019,07,01,13,21,22.90
2019,07,01,13,22,23.00
2019,07,01,13,23,23.00
2019,07,01,13,24,23.00
2019,07,01,13,25,23.00
2019,07,01,13,26,23.10
2019,07,01,13,27,23.10
2019,07,01,13,28,23.20
2019,07,01,13,29,23.20
2019,07,01,13,30,23.10
2019,07,01,13,31,23.00
2019,07,01,13,32,23.00
2019,07,01,13,33,23.00
2019,07,01,13,34,23.10
2019,07,01,13,35,23.10
2019,07,01,13,36,23.10
2019,07,01,13,37,23.20
2019,07,01,13,38,23.20
2019,07,01,13,39,23.20
2019,07,01,13,40,23.20
2019,07,01,13,41,23.30
2019,07,01,13,42,23.40
2019,07,01,13,43,23.40
2019,07,01,13,44,23.40
2019,07,01,13,45,23.40
2019,07,01,13,46,23.40
2019,07,01,13,47,23.40
2019,07,01,13,48,23.40
2019,07,01,13,49,23.40
2019,07,01,13,50,23.50
2019,07,01,13,51,23.50
2019,07,01,13,52,23.60
2019,07,01,13,53,23.60
2019,07,01,13,54,23.70
2019,07,01,13,55,23.70
2019,07,01,13,56,23.80
2019,07,01,13,57,23.80
2019,07,01,13,58,23.90
2019,07,01,13,59,24.00
2019,07,01,14,00,24.00
2019,07,01,14,01,24.10
2019,07,01,14,02,24.10
2019,07,01,14,03,24.20
2019,07,01,14,04,24.20
2019,07,01,14,05,24.20
2019,07,01,14,06,24.20
2019,07,01,14,07,24.10
2019,07,01,14,08,24.10
2019,07,01,14,09,24.10
2019,07,01,14,10,24.10
2019,07,01,14,11,24.10
2019,07,01,14,12,24.10
2019,07,01,14,13,24.20
2019,07,01,14,14,24.20
2019,07,01,14,15,24.20
2019,07,01,14,16,24.20
2019,07,01,14,17,24.30
2019,07,01,14,18,24.30
2019,07,01,14,19,24.40
2019,07,01,14,20,24.50
2019,07,01,14,21,24.50
2019,07,01,14,22,24.60
2019,07,01,14,23,24.60
2019,07,01,14,24,24.60
2019,07,01,14,25,24.70
2019,07,01,14,26,24.70
2019,07,01,14,27,24.80
2019,07,01,14,28,24.80
2019,07,01,14,29,24.80
2019,07,01,14,30,24.80
2019,07,01,14,31,24.80
2019,07,01,14,32,24.80
2019,07,01,14,33,24.80
2019,07,01,14,34,24.80
2019,07,01,14,35,24.80
2019,07,01,14,36,24.80
2019,07,01,14,37,24.80
2019,07,01,14,38,24.80
2019,07,01,14,39,24.80
2019,07,01,14,40,24.70
2019,07,01,14,41,24.70
2019,07,01,14,42,24.70
2019,07,01,14,43,24.70
2019,07,01,14,44,24.70
2019,07,01,14,45,24.70
2019,07,01,14,46,24.70
2019,07,01,14,47,24.80
2019,07,01,14,48,24.70
2019,07,01,14,49,24.70
2019,07,01,14,50,24.80
2019,07,01,14,51,24.80
2019,07,01,14,52,24.80
2019,07,01,14,53,24.80
2019,07,01,14,54,24.80
2019,07,01,14,55,24.80
2019,07,01,14,56,24.80
2019,07,01,14,57,24.80
2019,07,01,14,58,24.90
2019,07,01,14,59,25.00
2019,07,01,15,00,25.10
2019,07,01,15,01,25.10
2019,07,01,15,02,25.10
2019,07,01,15,03,25.10
2019,07,01,15,04,25.20
2019,07,01,15,05,25.20
2019,07,01,15,06,25.20
2019,07,01,15,07,25.20
2019,07,01,15,08,25.30
2019,07,01,15,09,25.30
2019,07,01,15,10,25.40
2019,07,01,15,11,25.50
2019,07,01,15,12,25.60
2019,07,01,15,13,25.60
2019,07,01,15,14,25.60
2019,07,01,15,15,25.60
2019,07,01,15,16,25.60
2019,07,01,15,17,25.60
2019,07,01,15,18,25.60
2019,07,01,15,19,25.70
2019,07,01,15,20,25.60
2019,07,01,15,21,25.60
2019,07,01,15,22,25.60
2019,07,01,15,23,25.60
2019,07,01,15,24,25.60
2019,07,01,15,25,25.50
2019,07,01,15,26,25.50
2019,07,01,15,27,25.50
2019,07,01,15,28,25.50
2019,07,01,15,29,25.50
2019,07,01,15,30,25.50
2019,07,01,15,31,25.50
2019,07,01,15,32,25.60
2019,07,01,15,33,25.60
2019,07,01,15,34,25.50
2019,07,01,15,35,25.30
2019,07,01,15,36,25.20
2019,07,01,15,37,25.20
2019,07,01,15,38,25.20
2019,07,01,15,39,25.20
2019,07,01,15,40,25.20
2019,07,01,15,41,25.20
2019,07,01,15,42,25.20
2019,07,01,15,43,25.10
2019,07,01,15,44,25.10
2019,07,01,15,45,25.00
2019,07,01,15,46,25.00
2019,07,01,15,47,25.00
2019,07,01,15,48,25.00
2019,07,01,15,49,25.10
2019,07,01,15,50,25.10
2019,07,01,15,51,25.10
2019,07,01,15,52,25.20
2019,07,01,15,53,25.20
2019,07,01,15,54,25.30
2019,07,01,15,55,25.30
2019,07,01,15,56,25.30
2019,07,01,15,57,25.30
2019,07,01,15,58,25.30
2019,07,01,15,59,25.30
2019,07,01,16,00,25.20
2019,07,01,16,01,25.20
2019,07,01,16,02,25.20
2019,07,01,16,03,25.10
2019,07,01,16,04,25.00
2019,07,01,16,05,25.00
2019,07,01,16,06,24.90
2019,07,01,16,07,24.80
2019,07,01,16,08,24.70
2019,07,01,16,09,24.60
2019,07,01,16,10,24.60
2019,07,01,16,11,24.60
2019,07,01,16,12,24.70
2019,07,01,16,13,24.80
2019,07,01,16,14,24.80
2019,07,01,16,15,24.90
2019,07,01,16,16,24.90
2019,07,01,16,17,24.90
2019,07,01,16,18,24.90
2019,07,01,16,19,24.90
2019,07,01,16,20,24.90
2019,07,01,16,21,25.00
2019,07,01,16,22,25.00
2019,07,01,16,23,25.00
2019,07,01,16,24,25.00
2019,07,01,16,25,24.90
2019,07,01,16,26,24.90
2019,07,01,16,27,24.90
2019,07,01,16,28,25.00
2019,07,01,16,29,25.00
2019,07,01,16,30,24.80
2019,07,01,16,31,24.60
2019,07,01,16,32,24.40
2019,07,01,16,33,24.20
2019,07,01,16,34,24.10
2019,07,01,16,35,24.00
2019,07,01,16,36,24.00
2019,07,01,16,37,23.90
2019,07,01,16,38,23.90
2019,07,01,16,39,23.90
2019,07,01,16,40,23.90
2019,07,01,16,41,23.80
2019,07,01,16,42,23.70
2019,07,01,16,43,23.50
2019,07,01,16,44,23.30
2019,07,01,16,45,23.20
2019,07,01,16,46,23.10
2019,07,01,16,47,23.10
2019,07,01,16,48,23.10
2019,07,01,16,49,23.10
2019,07,01,16,50,23.10
2019,07,01,16,51,23.00
2019,07,01,16,52,23.00
2019,07,01,16,53,23.00
2019,07,01,16,54,23.00
2019,07,01,16,55,23.10
2019,07,01,16,56,23.30
2019,07,01,16,57,23.40
2019,07,01,16,58,23.40
2019,07,01,16,59,23.50
2019,07,01,17,00,23.50
2019,07,01,17,01,23.40
2019,07,01,17,02,23.40
2019,07,01,17,03,23.40
2019,07,01,17,04,23.40
2019,07,01,17,05,23.40
2019,07,01,17,06,23.40
2019,07,01,17,07,23.40
2019,07,01,17,08,23.40
2019,07,01,17,09,23.30
2019,07,01,17,10,23.30
2019,07,01,17,11,23.30
2019,07,01,17,12,23.30
2019,07,01,17,13,23.30
2019,07,01,17,14,23.30
2019,07,01,17,15,23.30
2019,07,01,17,16,23.30
2019,07,01,17,17,23.20
2019,07,01,17,18,23.20
2019,07,01,17,19,23.30